User: anonymous   Login
Location: Unspecified
(0.0000°N, 0.0000°E)
Time: 07:22:40
(UTC+00:00)
Language:

Nova 3 - Orbit

View from above orbital plane
View from above orbital plane
View from above satellite
View from above satellite

Ground track
Ground track

The orbit is defined by the following mean orbital elements,

1 15362U          26106.47815691 +.00000000 +00000-0 +83676-4 0 00000
2 15362  90.1158  81.9312 0031226 349.2246 126.5828 13.23062752    04
Epoch (UTC): 16 April 2026 11:28:32
Eccentricity: 0.0031226
inclination: 90.1158°
perigee height: 1149 km
apogee height: 1197 km
right ascension of ascending node: 81.9312°
argument of perigee: 349.2246°
revolutions per day: 13.23062752
mean anomaly at epoch: 126.5828°

The dashed part of the orbit path shows where the satellite is in the earth's shadow,  

DLR